Regional Weather Roundup
Issued by NWS

Home | Current Version | Previous Version | Text Only | Print | Product List | Glossary Off
Versions: 1 2 3 4 5 6 7 8 9 10 11 12 13 14 15 16 17 18 19 20 21 22 23 24 25 26 27 28 29 30 31 32 33 34 35 36 37 38 39 40 41 42 43 44 45 46 47 48 49 50

000
ASUS43 KDTX 261301
RWRMI
MICHIGAN HOURLY REGIONAL WEATHER ROUNDUP
NATIONAL WEATHER SERVICE DETROIT/PONTIAC MI
900 AM EDT TUE JUL 26 2016

NOTE: "FAIR" INDICATES FEW OR NO CLOUDS BELOW 12,000 FEET WITH NO
SIGNIFICANT WEATHER AND/OR OBSTRUCTION TO VISIBILITY.

MIZ047>049-052>055-059>063-066>070-074>076-081>083-261400-
SOUTHEAST LOWER MICHIGAN

CITY           SKY/WX    TMP DP  RH WIND       PRES   REMARKS
ADRIAN         MOSUNNY   74  65  73 NE5       30.09S
ALMA           SUNNY     72  68  87 W3        30.08S
ANN ARBOR      SUNNY     75  63  66 CALM      30.08R
BAD AXE        SUNNY     71  62  72 SW3       30.07S
CARO           SUNNY     71  63  74 SW5       30.07R
DETROIT CITY   SUNNY     74  65  73 CALM      30.07S
DETROIT        MOSUNNY   74  64  71 CALM      30.08R
FLINT          SUNNY     76  62  62 CALM      30.07S
GROSSE ILE     SUNNY     73  66  78 CALM      30.06S
HILLSDALE      SUNNY     69  64  83 CALM      30.10S
HOWELL         SUNNY     71  64  79 CALM      30.09R

CITY           SKY/WX    TMP DP  RH WIND       PRES   REMARKS
JACKSON        SUNNY     72  66  81 CALM      30.09S
LAMBERTVILLE   MOSUNNY   74  66  74 CALM      30.07S
LANSING        SUNNY     74  64  71 CALM      30.09R
LAPEER         FAIR      71  63  74 CALM      30.08S
MASON          SUNNY     70  65  83 CALM      30.09R
MONROE         SUNNY     71  66  84 NW5       30.07S
MT. CLEMENS    MOSUNNY   74  65  72 CALM      30.05R
PONTIAC        MOSUNNY   72  63  73 W3        30.07R
PORT HURON     SUNNY     70  66  88 NW3       30.07R
TRI CITIES     SUNNY     71  64  78 SW5       30.07S
MIDLAND        FAIR      72  63  73 CALM      30.06S
TROY           SUNNY     74  62  67 CALM      30.09S
SAGINAW HB     SUNNY     72  63  73 SW3       30.06S
$$
MIZ043>046-050>051-056>058-064>065-071>073-077>080-261400-
SOUTHWEST LOWER MICHIGAN

CITY           SKY/WX    TMP DP  RH WIND       PRES   REMARKS
BATTLE CREEK   SUNNY     72  65  78 CALM      30.10R
BENTON HARBOR  MOSUNNY   75  68  78 CALM      30.07S
BIG RAPIDS     SUNNY     69  69 100 CALM      30.07S
COLDWATER      SUNNY     72  66  83 NE5       30.10S
FREMONT        FAIR      69  69 100 CALM      30.06S
HOLLAND        SUNNY     74  69  85 CALM      30.08S
GRAND RAPIDS   MOSUNNY   75  66  73 W5        30.08S
IONIA          FAIR      70  65  84 CALM      30.08R
KALAMAZOO      SUNNY     74  64  71 CALM      30.09S
LUDINGTON      SUNNY     74  68  82 SW3       30.05S
MARSHALL       SUNNY     72  66  82 CALM      30.09S
MOUNT PLEASANT MOSUNNY   74  65  74 CALM      30.06S
MUSKEGON       MOSUNNY   78  69  73 CALM      30.06S
SOUTH HAVEN    SUNNY     72  70  94 CALM      30.07S
$$
MIZ016>042-261400-
NORTHERN LOWER MICHIGAN

CITY           SKY/WX    TMP DP  RH WIND       PRES   REMARKS
ALPENA         SUNNY     73  58  59 W6        30.03S
BEAVER ISLAND  SUNNY     72  67  82 SW9       30.03R
BELLAIRE       SUNNY     70  61  75 CALM      30.04S
CADILLAC       FOG       65  64  96 CALM      30.07S VSB 3/4
CHARLEVOIX     SUNNY     73  64  71 S3        30.06R
FRANKFORT      SUNNY     71  66  84 CALM      30.05R
GAYLORD        SUNNY     71  58  63 SW6       30.06S
GRAYLING       SUNNY     70  61  72 SW5       30.07S
HARBOR SPRINGS SUNNY     69  61  76 SW3       30.03R
HOUGHTON LAKE  SUNNY     70  62  76 SW6       30.08R
MANISTEE       SUNNY     68  65  90 CALM      30.05R
OSCODA         SUNNY     74  59  58 W7        30.03S
ROGERS CITY    SUNNY     73  57  57 W8        30.03R
TRAVERSE CITY  MOSUNNY   74  64  71 VRB3      30.03R
$$
MIZ007>008-015-261400-
EASTERN UPPER MICHIGAN

CITY           SKY/WX    TMP DP  RH WIND       PRES   REMARKS
KINROSS        SUNNY     68  61  78 W7        30.01S
MACKINAC ISLAN SUNNY     71  62  75 SW8       30.02R
S. S. MARIE    SUNNY     68  61  78 W3        30.00R
MUNISING         N/A     72  62  71 S7        29.98F
$$
MIZ004>006-011>014-085-261400-
CENTRAL UPPER MICHIGAN

CITY           SKY/WX    TMP DP  RH WIND       PRES   REMARKS
ESCANABA       SUNNY     70  63  78 CALM      30.01R
MENOMINEE      SUNNY    N/A N/A N/A CALM      30.05R
SAWYER-GWINN   SUNNY     66  61  82 CALM      30.03S
$$
MIZ001>003-009>011-084-261400-
WESTERN UPPER MICHIGAN

CITY           SKY/WX    TMP DP  RH WIND       PRES   REMARKS
IRON MOUNTAIN  SUNNY     70  61  73 W6        30.04S
HOUGHTON       MOSUNNY   71  62  73 W9        29.99S
COPPER HARBOR    N/A     72  63  73 N5        29.96S
IRONWOOD       MOSUNNY   72  68  88 CALM      30.01S
$$

ABBREVIATIONS USED IN REMARKS
   TC - TEMPERATURE IN CELSIUS
  WCI - WIND CHILL INDEX
   HX - HEAT INDEX
  VSB - VISIBILITY




USA.gov is the U.S. government's official web portal to all federal, state and local government web resources and services.